Weather in Mirny

Russia / Sakha (Yakutia) Republic     62°32′27″N   113°58′43″E
temp.,
°C
wind,
m/s
gust,
m/s
humid.,
%
clouds,
%
prec.,
mm/h
press.,
hPa
HPBL,
m
13 august, sat
sat1300:00+12wnw129853 1.6 100557
03:00+11nw229847 1.8 100636
06:00+12nnw119851 0.1 100524
09:00+14wnw139285 0.1 1006342
12:00+15w3373100 0.0 1006987
15:00+16wsw1264100 0.1 10061154
18:00+12wnw4783100 0.1 1008416
21:00+12wnw2588100 0.4 1008212
14 august, sun
sun1400:00+11w2588100 1.1 1007164
03:00+9nw3895100 5.2 1007311
06:00+8wnw2698100 1.2 1007222
09:00+10w3589100 1.2 1007371
12:00+14w35594 0.0 10061239
15:00+16w345135 0.0 10061666
18:00+15wnw335399 0.0 10061554
21:00+11nnw22765 0.0 100619
15 august, mon
mon1500:00+8ssw11845 0.0 100610
03:00+9sw1180100 0.0 100527
06:00+9ssw118394 0.0 100426
09:00+11s237986 0.0 1003275
12:00+15ssw24515 0.1 10011476
15:00+16sse2455100 0.1 10001322
18:00+13w1181100 0.4 99912
21:00+11se2492100 0.8 998124
16 august, tue
tue1600:00+11s39937 0.1 997455
03:00+11sse399898 0.1 997436
06:00+10sse499877 0.1 996383
09:00+11ssw599190 0.3 996559
12:00+11ssw4889100 0.3 996714
15:00+12sw478197 0.5 997928
18:00+13sw356954 0.1 998932
21:00+10wsw268567 0.4 998122
17 august, wed
wed1700:00+7wsw2696100 0.0 999131
03:00+7wsw2797100 0.0 1000213
06:00+8w3895100 0.0 1000416
09:00+9w3690100 0.1 1000519
12:00+11w4681100 0.2 1000742
15:00+13w4566100 0.4 9991325
18:00+12wnw4677100 0.3 1000696
21:00+10w4983100 0.4 1001519